Showing default

GHOST-3, 56958

Orbit data source: Space-Track

GHOST-3, 56958 is a payload satellite owned by Orbital Sidekick (US) in SSO that was launched on Mon, 12 Jun 2023 UTC via an FALCON 9 launch vehicle from the Air Force Western Test Range (AFWTR). Payload-class satellites include a variety of spacecraft equipped with specific instruments for various scientific and technological missions. These include communications satellites like Starlink; space stations such as the ISS; scientific satellites like the Hubble; Earth observation satellites from companies like Planet Labs, Umbra, and HawkEye 360; GPS; miniature CubeSats for education and research; and military/defense satellites.

Loading next visibility...
Identifier
56958, 2023-084AC
Orbit
SSO
Country
Flag of USUS
Related business
Manufacturer
Astro Digital
Mission
Operational Commercial Imaging
Bus & Motor
CORVUS-XL, Unknown motor
Mass
85 kg wet, 85 kg dry
Launch date (UTC)
2023-06-12 (2 years ago)
Launch vehicle
FALCON 9
Launch site
Air Force Western Test Range (AFWTR)
Object type
Payload
Rocket body
Debris
Shape & HBR
Box + 1 Dish, 1.0 m
Radar Cross Section
0.425 m², Medium (>0.1 m² and < 1m²)

Expand to show TLE details & history
Last TLE update: 1 day ago

TLE from 1 day ago
0 GHOST-3
1 56958U 23084AC  25306.31656252  .00016986  00000-0  44825-3 0  9992
2 56958  97.5944  79.7432 0008273  36.1066 324.0735 15.38511783133022
Epoch: 2025-11-02T07:35Z
TLE epoch observation values (Epoch: 2025-11-02T07:35:51.001Z)
Latitude
-0.00012°
Longitude
-76.05332°
Altitude
449.045 km
Speed
7.645 km/s
True Right ascension
05h 18m 58s
True Declination
0° 00' 00"
Sunlit
Object was in full shadow at epoch
Visualization orbit readout
Latitude
Unknown
Longitude
Unknown
Altitude
Unknown
Speed
Unknown
Apparent Right ascension
Unknown
Apparent Declination
Unknown
Sunlit
N/A
Visualization observer readout
Local Sidereal Time
08:15:25
Azimuth
Unknown
Elevation
Unknown
Doppler factor
Unknown
Orbital elements
Apogee altitude
453.106 km
Perigee altitude
441.812 km
Semi-major axis
6,825.596 km
Eccentricity
0.00083
Inclination
97.5944°
RAAN
79.7432°
Arg. of periapsis
36.1066°
True anomaly
324.01783°
Mean anomaly
324.0735°
Eccentric anomaly
324.04567°
Mean motion
3.84886 °/min
Orbital period
93.53 mins
BSTAR
0.00044825
Loading maneuver chart data...
Computing Atmospheric mass density...
Loading historical data...
Loading historical data...
Loading historical data...
Loading historical data...
Loading historical data...
Loading historical data...
Loading historical data...

Documentation

Showing up to 5 results
|